Regional Weather Roundup
Issued by NWS Grand Forks, ND

Home | Current Version | Previous Version | Text Only | Print | Product List | Glossary Off
Versions: 1 2 3 4 5 6 7 8 9 10 11 12 13 14 15 16 17 18 19 20 21 22 23 24 25 26 27 28 29 30 31 32 33 34 35 36 37 38 39 40 41 42 43 44 45 46 47 48 49 50

000
ASUS43 KFGF 221610
RWRFGF
PRAIRIE TO PINES  WEATHER ROUNDUP
NATIONAL WEATHER SERVICE EASTERN NORTH DAKOTA/GRAND FORKS ND
1000 AM CST MON JAN 22 2018

 **SATELLITE DATA USED TO AUGMENT SKY COVER AT AUTOMATED STATIONS**
 *****  WEATHER ACROSS EASTERN NORTH DAKOTA  *****

CITY           SKY/WX    TMP DP  RH WIND       PRES   REMARKS
GRAND FORKS    CLOUDY    25  21  85 NE9       30.10S WCI  15
GRAND FRKS AFB CLOUDY    25  19  80 NE13      30.11S WCI  13
DEVILS LAKE    FLURRIES  22  21  96 E7        30.08R WCI  13
FARGO          CLOUDY    26  24  92 N15       30.01F WCI  14
WAHPETON ARPT  CLOUDY    28  23  80 N16       29.96F WCI  17
$$

 ***** WEATHER ACROSS CENTRAL AND WESTERN NORTH DAKOTA  *****

CITY           SKY/WX    TMP DP  RH WIND       PRES   REMARKS
BISMARCK       FOG       19  17  92 NW5       30.06R VSB 3/4 WCI  12
MINOT          FOG       13  10  88 S3        30.05R VSB 1/4
JAMESTOWN      CLOUDY    22  20  92 NE9       30.03F WCI  12
MINOT AFB      FOG       13  10  88 CALM      30.04S VSB 1/8
GARRISON         N/A      7   4  87 E5        30.04R WCI  -2
WILLISTON      FAIR      10   7  87 CALM      30.03S
DICKINSON      FAIR      18  13  80 NW9       29.97S WCI   7
HETTINGER      FAIR      20  15  81 W3        30.00R
$$

 *****  OTHER AIRPORT OBSERVATIONS IN OUR AREA  *****

CITY           SKY/WX    TMP DP  RH WIND       PRES   REMARKS
WALHALLA       FAIR      21  21 100 N5        30.12R WCI  15
GRAFTON AIRPOR NOT AVBL
VALLEY CITY AR NOT AVBL
CANDO          CLOUDY    23  23 100 E5        30.09S WCI  17
CAVALIER APRT    N/A     21  21 100 N5        30.12R WCI  15
GWINNER          N/A     23  23 100 N14       29.98F FOG     WCI  11
SHEYENNE NWR     N/A     24  24 100 N10       29.95S WCI  14
ROLLA          CLOUDY    21  21 100 CALM      30.06S
 ***** THE ABOVE OBSERVATIONS ARE NON NWS ARE NOT QUALITY
       CONTROLLED AND MAY MIS-REPORT RAIN FOR SNOW...
$$

  *****  WEATHER ACROSS NORTHERN MINNESOTA  *****

CITY           SKY/WX    TMP DP  RH WIND       PRES   REMARKS
FLAG ISLAND    CLOUDY    18  16  93 NE6       30.12S WCI   9
WARROAD        CLOUDY    19  16  86 NE9       30.11F WCI   9
ROSEAU         CLOUDY    21  18  86 E7        30.11S WCI  13
HALLOCK        CLOUDY    25  21  86 NE3       30.12R
THF RVR FALLS  CLOUDY    24  22  91 NE12      30.05  WCI  13
BAUDETTE       CLOUDY    21  19  92 NE8       30.07F WCI  11
WASKISH        CLOUDY    23  21  93 NE5       30.04F WCI  17
CROOKSTON      PTSUNNY   25  21  86 N10       30.07F WCI  15
STEPHEN NDAWN    N/A     25  21  86 N5          N/A  WCI  19
GREENBUSH NDAW   N/A     21  19  93 NE8         N/A  WCI  12
$$
  *****  WEATHER ACROSS CENTRAL AND WEST MINNESOTA  *****

CITY           SKY/WX    TMP DP  RH WIND       PRES   REMARKS
FOSSTON        CLOUDY    23  21  93 NE10      30.01F WCI  12
BEMIDJI        CLOUDY    24  24  97 NE13      30.00S WCI  13
PARK RAPIDS    CLOUDY    26  22  84 NE15G21   29.94S WCI  14
ELBOW LAKE     CLOUDY    26  24  94 E15G28    29.91F WCI  13
WADENA         CLOUDY    25  23  93 NE15G21   29.92F WCI  12
DETROIT LAKES  CLOUDY    28  27  93 NE9       29.95F WCI  20
MOORHEAD       CLOUDY    25  23  93 N13       30.01S WCI  13
FERGUS FALLS   CLOUDY    27  25  93 NE12G20   29.94S WCI  16
MORRIS MN      CLOUDY    28  27  93 N20       29.89S WCI  15
STAPLES        CLOUDY    25  21  86 NE10G18   29.92S WCI  15
$$
  *****  WEATHER ELSEWHERE ACROSS MINNESOTA  *****

CITY           SKY/WX    TMP DP  RH WIND       PRES   REMARKS
DULUTH         FRZ DRZL  23  21  92 NE14      29.93F FOG     WCI  11
INTRNTL FALLS  CLOUDY    19  15  84 NE8       30.06F WCI   9
ELY            CLOUDY    16  16 100 NE6       30.02F WCI   7
CLOQUET        CLOUDY    23  21  93 NE15G24   29.93F WCI  10
WHEATON        CLOUDY    27  23  86 N16G22    29.96S WCI  14
BRAINERD       CLOUDY    26  22  84 NE15      29.93F WCI  14
HIBBING        CLOUDY    22  20  92 NE13      29.98F WCI  10
ALEXANDRIA     CLOUDY    26  24  92 NE18G25   29.88F WCI  13
SAINT CLOUD    CLOUDY    29  25  85 NE13G25   29.83F WCI  19
MINNEAPOLIS    LGT SNOW  31  29  92 N15G23    29.75F FOG     WCI  20
$$

  *****  WEATHER ACROSS SOUTH DAKOTA  *****

CITY           SKY/WX    TMP DP  RH WIND       PRES   REMARKS
SIOUX FALLS    LGT SNOW  26  24  92 N23G40    29.72R VSB 1   WCI  11
BROOKINGS      LGT SNOW  24  22  91 N20G29    29.77F FOG     WCI  10
WATERTOWN      CLOUDY    23  23 100 N28G33    29.83S FOG     WCI   6
HURON          CLOUDY    22  21  96 N25G33    29.89R FOG     WCI   5
SISSETON         N/A     25  24  96 N20       29.93F WCI  11
ABERDEEN       CLOUDY    22  21  96 N20G28    29.97F WCI   7
MITCHELL       MIX PCPN  24  21  88 N29G36    29.87R FOG     WCI   7
PIERRE         CLOUDY    22  21  96 NW12      29.98F FOG     WCI  10
MOBRIDGE       FOG       22  19  89 N8        29.99R VSB 1/2 WCI  12
RAPID CITY     FAIR      29  17  61 W6        29.98S WCI  23
$$

  *****  SOME WEATHER IN NEARBY STATES *****

CITY           SKY/WX    TMP DP  RH WIND       PRES   REMARKS
GLASGOW MT     FAIR       9   6  88 SE6       29.97S WCI  -1
GREAT FALLS MT FAIR      33  19  56 SW17      29.99R WCI  22
CHEYENNE WY    FAIR      21   8  57 W20       29.97R WCI   6
SCOTTSBLUFF NE FAIR      18   8  65 W10       30.02R WCI   6
OMAHA NE       LGT SNOW  34  32  92 N21G28    29.43S FOG     WCI  22
DES MOINES IA  PTSUNNY   46  46 100 S12       29.37R FOG
DAVENPORT IA   LGT RAIN  43  41  93 E8        29.49F VSB 1/4
CHICAGO IL     CLOUDY    51  47  86 S16       29.57S
EAU CLAIRE WI  SNOW      32  31  96 NE13      29.72S VSB 1/4 WCI  22
LA CROSSE WI   LGT RAIN  38  34  85 NE12G30   29.59F FOG
$$

  *****  SOME NATIONAL WEATHER *****

CITY           SKY/WX    TMP DP  RH WIND       PRES   REMARKS
LA GUARDIA NY  CLOUDY    42  37  82 NE8       30.21R HAZE
RALEIGH NC     CLOUDY    57  45  64 CALM      30.20F
ATLANTA GA     CLOUDY    54  51  90 SE7       30.11F
NEW ORLEANS LA PTSUNNY   68  66  93 S9        29.97S
OKLAHOMA CITY  PTSUNNY   43  22  43 W26G39    29.83R
ALBUQUERQUE NM FAIR      27  10  49 N16       30.25R WCI  15
SALT LAKE CITY PTSUNNY   27  18  69 SE12      30.31R WCI  17
LOS ANGELES CA FAIR      53  26  35 CALM      30.26R
BOISE ID       CLOUDY    36  32  85 SE13      30.20R
SEATTLE WA     MOCLDY    40  38  93 S13       30.15R
$$

*** WEATHER ACROSS MANITOBA...SASKATCHEWAN AND ONTARIO ***
                ***ONTARIO***

CITY           SKY/WX    TMP DP  RH WIND       PRES   REMARKS
GERALDTON      FLURRIES   0  -8  71 NE10      30.22F WCI -17
THUNDER BAY    CLOUDY    14   9  79 N5        30.14F WCI   6
SIOUX LOOKOUT  FLURRIES   7   3  85 NE5       30.16R WCI  -2
TORONTO        LGT RAIN  36  34  93 E12G18    30.01F FOG
BIG TROUT LK   CLOUDY   -11 -17  77 VRB2      30.39F
PICKLE LAKE    FLURRIES  -2  -8  78 E8        30.23R WCI -17
DRYDEN         FLURRIES  10   7  85 NE8       30.12F WCI  -1
KENORA         PTSUNNY   14  10  85 E6        30.12R WCI   5
$$
                *** MANITOBA***

CITY           SKY/WX    TMP DP  RH WIND       PRES   REMARKS
BRANDON        CLOUDY    21  19  93 E7        30.09S FOG     WCI  13
DAUPHIN        CLOUDY    16  14  93 E7        30.12F WCI   6
ISLAND LAKE    PTCLDY    -8 -13  77 E6        30.28S WCI -21
PILOT MOUND      N/A     23  21  93 NE2         N/A
THE PAS        FLURRIES  -8 -13  77 E10       30.18S WCI -26
THOMPSON       CLEAR    -22 -27  76 NE7       30.33R WCI -39
WINNIPEG       CLOUDY    21  18  86 NE3       30.14S
LYNN LAKE      CLOUDY   -26 -31  75 E6        30.24F WCI -42
CHURCHILL      FLURRIES -15 -20  76 S5        30.54S WCI -27
GILLAM         PTCLDY   -17 -22  76 E5        30.44S FOG     WCI -29
$$
                ***SASKATCHEWAN***

CITY           SKY/WX    TMP DP  RH WIND       PRES   REMARKS
ESTEVAN        CRYSTALS   7   3  85 E8        30.01S FOG     WCI  -6
KINDERSLEY     MOCLDY    28  21  74 SW15      29.75R WCI  17
LLOYDMINSTER   MOCLDY    18  16  93 SE6       29.71F WCI   9
PRINCE ALBERT  LGT SNOW   9   5  85 E14       29.92F FOG     WCI  -8
REGINA         MOCLDY     9   7  92 SE16      29.92S WCI  -9
YORKTON        CLOUDY    21  21 100 SE16G24   29.99F FOG     WCI   7
N. BATTLEFORD  CLOUDY    19  16  86 SE17      29.78S WCI   4
LA RONGE       FLURRIES N/A N/A N/A NE17        N/A
SASKATOON      MOCLDY    16  14  93 SE9       29.80F WCI   4
SWIFT CURRENT  CLEAR     28  18  64 SW18      29.81R WCI  16
$$
NOTE: THESE ARE AUTOMATED STATIONS WITH LIMITED QUALITY CONTROL
      "FAIR" INDICATES FEW OR NO CLOUDS BELOW 12,000 FEET WITH NO
      SIGNIFICANT WEATHER AND/OR OBSTRUCTIONS TO VISIBILITY.
      SKY/WX - SKY CONDITION AND SIGNIFICANT WEATHER.
      TMP - AIR TEMPERATURE.    DP   - DEWPOINT TEMPERATURE.
      RH  - RELATIVE HUMIDITY.  PRES - PRESSURE.
      HX  - HEAT INDEX.         WCI  - WIND CHILL INDEX.
$




USA.gov is the U.S. government's official web portal to all federal, state and local government web resources and services.